When you browse on this site, cookies collect data to enhance your experience and personalize the content and advertising you see.
Visit our Privacy Policy to learn more. By continuing to use the site, you agree to this use of cookies and data.
  • In Deutschland
  • Länderverzeichnis
  • Für 7 Tage
  • Wassertemperatur
  • Satellitenkarten
  • Wetterkarte
  • Widgets
  • user-avatar
    Anmelden

    Stündliche Wetter Zaranj

    Heute, 19 Juli, Freitag

    Zeit Temperatur Niederschläge Wind Luftdruck Luftfeuchtigkeit
    00:00 +39°C° 0 mm 9 m/S 706 mmHg 12%
    01:00 +38°C° 0 mm 9 m/S 706 mmHg 13%
    02:00 +37°C° 0 mm 9 m/S 707 mmHg 13%
    03:00 +37°C° 0 mm 9 m/S 707 mmHg 13%
    04:00 +35°C° 0 mm 8 m/S 707 mmHg 13%
    05:00 +35°C° 0 mm 8 m/S 708 mmHg 13%
    06:00 +37°C° 0 mm 8 m/S 708 mmHg 12%
    07:00 +38°C° 0 mm 8 m/S 709 mmHg 11%
    08:00 +40°C° 0 mm 8 m/S 709 mmHg 10%
    09:00 +44°C° 0 mm 8 m/S 709 mmHg 8%
    10:00 +46°C° 0 mm 8 m/S 709 mmHg 6%
    11:00 +49°C° 0 mm 7 m/S 709 mmHg 5%
    12:00 +49°C° 0 mm 6 m/S 709 mmHg 5%
    13:00 +52°C° 0 mm 5 m/S 708 mmHg 4%
    14:00 +52°C° 0 mm 5 m/S 708 mmHg 4%
    15:00 +53°C° 0 mm 5 m/S 707 mmHg 3%
    16:00 +53°C° 0 mm 6 m/S 707 mmHg 3%
    17:00 +51°C° 0 mm 6 m/S 707 mmHg 5%
    18:00 +48°C° 0 mm 6 m/S 707 mmHg 6%
    19:00 +46°C° 0 mm 7 m/S 707 mmHg 8%
    20:00 +45°C° 0 mm 8 m/S 707 mmHg 8%
    21:00 +44°C° 0 mm 9 m/S 707 mmHg 9%
    22:00 +43°C° 0 mm 11 m/S 707 mmHg 9%
    23:00 +42°C° 0 mm 10 m/S 707 mmHg 10%

    Morgen, 20 Juli, Samstag

    Zeit Temperatur Niederschläge Wind Luftdruck Luftfeuchtigkeit
    00:00 +40°C° 0 mm 10 m/S 707 mmHg 11%
    01:00 +39°C° 0 mm 9 m/S 707 mmHg 12%
    02:00 +38°C° 0 mm 9 m/S 707 mmHg 13%
    03:00 +37°C° 0 mm 8 m/S 707 mmHg 13%
    04:00 +35°C° 0 mm 8 m/S 707 mmHg 14%
    05:00 +37°C° 0 mm 8 m/S 708 mmHg 13%
    06:00 +38°C° 0 mm 9 m/S 709 mmHg 12%
    07:00 +38°C° 0 mm 9 m/S 709 mmHg 11%
    08:00 +42°C° 0 mm 9 m/S 710 mmHg 9%
    09:00 +44°C° 0 mm 9 m/S 710 mmHg 7%
    10:00 +48°C° 0 mm 8 m/S 710 mmHg 6%
    11:00 +49°C° 0 mm 7 m/S 710 mmHg 5%
    12:00 +51°C° 0 mm 6 m/S 710 mmHg 4%
    13:00 +52°C° 0 mm 5 m/S 710 mmHg 4%
    14:00 +53°C° 0 mm 5 m/S 709 mmHg 4%
    15:00 +52°C° 0 mm 4 m/S 709 mmHg 4%
    16:00 +52°C° 0 mm 4 m/S 708 mmHg 3%
    17:00 +50°C° 0 mm 4 m/S 708 mmHg 4%
    18:00 +47°C° 0 mm 4 m/S 708 mmHg 5%
    19:00 +44°C° 0 mm 4 m/S 708 mmHg 6%
    20:00 +44°C° 0 mm 6 m/S 708 mmHg 7%
    21:00 +44°C° 0 mm 8 m/S 708 mmHg 8%
    22:00 +43°C° 0 mm 10 m/S 709 mmHg 9%
    23:00 +42°C° 0 mm 10 m/S 708 mmHg 10%

    übermorgen, 21 Juli, Sonntag

    Zeit Temperatur Niederschläge Wind Luftdruck Luftfeuchtigkeit
    00:00 +40°C° 0 mm 10 m/S 708 mmHg 11%
    01:00 +39°C° 0 mm 10 m/S 708 mmHg 12%
    02:00 +38°C° 0 mm 10 m/S 708 mmHg 13%
    03:00 +38°C° 0 mm 9 m/S 708 mmHg 15%
    04:00 +37°C° 0 mm 9 m/S 708 mmHg 16%
    05:00 +38°C° 0 mm 10 m/S 709 mmHg 15%
    06:00 +38°C° 0 mm 10 m/S 709 mmHg 15%
    07:00 +39°C° 0 mm 11 m/S 710 mmHg 14%
    08:00 +43°C° 0 mm 10 m/S 710 mmHg 11%
    09:00 +45°C° 0 mm 10 m/S 710 mmHg 8%
    10:00 +49°C° 0 mm 9 m/S 711 mmHg 5%
    11:00 +50°C° 0 mm 8 m/S 711 mmHg 5%
    12:00 +52°C° 0 mm 7 m/S 710 mmHg 4%
    13:00 +53°C° 0 mm 6 m/S 710 mmHg 4%
    14:00 +53°C° 0 mm 6 m/S 709 mmHg 4%
    15:00 +54°C° 0 mm 5 m/S 709 mmHg 4%
    16:00 +54°C° 0 mm 5 m/S 708 mmHg 4%
    17:00 +50°C° 0 mm 4 m/S 708 mmHg 5%
    18:00 +47°C° 0 mm 4 m/S 708 mmHg 5%
    19:00 +44°C° 0 mm 3 m/S 708 mmHg 6%
    20:00 +44°C° 0 mm 6 m/S 708 mmHg 8%
    21:00 +44°C° 0 mm 8 m/S 708 mmHg 10%
    22:00 +43°C° 0 mm 11 m/S 709 mmHg 11%
    23:00 +43°C° 0 mm 12 m/S 709 mmHg 14%

    22 Juli, Montag

    Zeit Temperatur Niederschläge Wind Luftdruck Luftfeuchtigkeit
    00:00 +42°C° 0 mm 13 m/S 709 mmHg 16%
    01:00 +41°C° 0 mm 15 m/S 709 mmHg 19%
    02:00 +40°C° 0 mm 14 m/S 709 mmHg 21%
    03:00 +38°C° 0 mm 14 m/S 709 mmHg 24%
    04:00 +37°C° 0 mm 14 m/S 709 mmHg 27%
    05:00 +37°C° 0 mm 14 m/S 709 mmHg 26%
    06:00 +38°C° 0 mm 14 m/S 710 mmHg 25%
    07:00 +38°C° 0 mm 14 m/S 710 mmHg 25%
    08:00 +41°C° 0 mm 13 m/S 710 mmHg 20%
    09:00 +44°C° 0 mm 12 m/S 710 mmHg 16%
    10:00 +47°C° 0 mm 12 m/S 710 mmHg 12%
    11:00 +49°C° 0 mm 9 m/S 710 mmHg 10%
    12:00 +51°C° 0 mm 7 m/S 710 mmHg 7%
    13:00 +52°C° 0 mm 5 m/S 709 mmHg 5%
    14:00 +53°C° 0 mm 5 m/S 709 mmHg 5%
    15:00 +53°C° 0 mm 5 m/S 708 mmHg 5%
    16:00 +53°C° 0 mm 5 m/S 707 mmHg 4%
    17:00 +51°C° 0 mm 7 m/S 707 mmHg 7%
    18:00 +49°C° 0 mm 9 m/S 707 mmHg 10%
    19:00 +47°C° 0 mm 12 m/S 707 mmHg 12%
    20:00 +45°C° 0 mm 13 m/S 707 mmHg 14%
    21:00 +43°C° 0 mm 14 m/S 707 mmHg 15%
    22:00 +42°C° 0 mm 15 m/S 708 mmHg 16%
    23:00 +41°C° 0 mm 15 m/S 707 mmHg 16%

    23 Juli, Dienstag

    Zeit Temperatur Niederschläge Wind Luftdruck Luftfeuchtigkeit
    00:00 +40°C° 0 mm 15 m/S 707 mmHg 16%
    01:00 +38°C° 0 mm 15 m/S 707 mmHg 17%
    02:00 +37°C° 0 mm 14 m/S 707 mmHg 16%
    03:00 +37°C° 0 mm 13 m/S 707 mmHg 16%
    04:00 +36°C° 0 mm 12 m/S 707 mmHg 16%
    05:00 +36°C° 0 mm 12 m/S 708 mmHg 15%
    06:00 +36°C° 0 mm 12 m/S 708 mmHg 14%
    07:00 +37°C° 0 mm 12 m/S 708 mmHg 14%
    08:00 +39°C° 0 mm 11 m/S 709 mmHg 12%
    09:00 +41°C° 0 mm 11 m/S 709 mmHg 11%
    10:00 +43°C° 0 mm 10 m/S 709 mmHg 9%
    11:00 +45°C° 0 mm 9 m/S 709 mmHg 8%
    12:00 +49°C° 0 mm 8 m/S 709 mmHg 7%
    13:00 +51°C° 0 mm 7 m/S 708 mmHg 6%
    14:00 +51°C° 0 mm 8 m/S 708 mmHg 6%
    15:00 +51°C° 0 mm 8 m/S 707 mmHg 6%
    16:00 +52°C° 0 mm 8 m/S 707 mmHg 6%
    17:00 +50°C° 0 mm 9 m/S 707 mmHg 7%
    18:00 +48°C° 0 mm 10 m/S 707 mmHg 8%
    19:00 +46°C° 0 mm 11 m/S 707 mmHg 9%
    20:00 +44°C° 0 mm 12 m/S 707 mmHg 10%
    21:00 +43°C° 0 mm 12 m/S 707 mmHg 10%
    22:00 +41°C° 0 mm 12 m/S 707 mmHg 11%
    23:00 +41°C° 0 mm 12 m/S 707 mmHg 12%

    24 Juli, Mittwoch

    Zeit Temperatur Niederschläge Wind Luftdruck Luftfeuchtigkeit
    00:00 +39°C° 0 mm 12 m/S 707 mmHg 13%
    01:00 +38°C° 0 mm 12 m/S 707 mmHg 14%
    02:00 +37°C° 0 mm 12 m/S 707 mmHg 15%
    03:00 +37°C° 0 mm 12 m/S 707 mmHg 16%
    04:00 +36°C° 0 mm 12 m/S 707 mmHg 17%
    05:00 +36°C° 0 mm 12 m/S 707 mmHg 16%
    06:00 +37°C° 0 mm 12 m/S 708 mmHg 16%
    07:00 +37°C° 0 mm 12 m/S 708 mmHg 15%
    08:00 +39°C° 0 mm 12 m/S 708 mmHg 13%
    09:00 +42°C° 0 mm 11 m/S 708 mmHg 11%
    10:00 +44°C° 0 mm 11 m/S 709 mmHg 9%
    11:00 +47°C° 0 mm 10 m/S 708 mmHg 8%
    12:00 +49°C° 0 mm 10 m/S 708 mmHg 7%
    13:00 +51°C° 0 mm 9 m/S 708 mmHg 6%
    14:00 +53°C° 0 mm 10 m/S 707 mmHg 6%
    15:00 +53°C° 0 mm 11 m/S 707 mmHg 6%
    16:00 +53°C° 0 mm 11 m/S 706 mmHg 6%
    17:00 +51°C° 0 mm 12 m/S 706 mmHg 7%
    18:00 +48°C° 0 mm 12 m/S 706 mmHg 8%
    19:00 +46°C° 0 mm 12 m/S 706 mmHg 10%
    20:00 +45°C° 0 mm 13 m/S 706 mmHg 11%
    21:00 +42°C° 0 mm 13 m/S 707 mmHg 13%
    22:00 +41°C° 0 mm 14 m/S 707 mmHg 14%
    23:00 +40°C° 0 mm 14 m/S 707 mmHg 15%
    Mehr zeigen